| time (UTC) | temp C | wind direction | speed KPH | gust KPH | rain 1hr cm | rain 24hr cm | rain mn cm | humidity % | barometer mb |
| 20260506061004 | 13 | 99 | 3.2 | 14.5 | 0.00 | 1.32 | 0.66 | 93 | 1009.6 |
| 20260506060504 | 13 | 116 | 4.8 | 16.1 | 0.00 | 1.35 | 0.66 | 93 | 1009.6 |
| 20260506051004 | 13 | 102 | 3.2 | 9.7 | 0.25 | 1.35 | 0.66 | 93 | 1009.4 |
| 20260506050504 | 13 | 93 | 3.2 | 8.0 | 0.33 | 1.35 | 0.66 | 93 | 1009.5 |
| 20260506044504 | 13 | 135 | 1.6 | 4.8 | 0.51 | 1.32 | 0.64 | 93 | 1010.1 |
| 20260506043504 | 13 | 78 | 0.0 | 0.0 | 0.56 | 1.32 | 0.64 | 93 | 1010.0 |
| 20260506043004 | 13 | 78 | 1.6 | 3.2 | 0.56 | 1.30 | 0.61 | 93 | 1009.9 |
| 20260506042003 | 13 | 81 | 1.6 | 4.8 | 0.48 | 1.19 | 0.51 | 93 | 1009.1 |
| 20260506041504 | 13 | 93 | 3.2 | 4.8 | 0.46 | 1.14 | 0.46 | 93 | 1009.4 |
| 20260506040503 | 13 | 121 | 1.6 | 3.2 | 0.33 | 1.02 | 0.33 | 93 | 1010.2 |
| 20260506035004 | 13 | 115 | 4.8 | 11.3 | 0.15 | 0.84 | 0.15 | 92 | 1010.2 |
| 20260506034504 | 13 | 115 | 0.0 | 4.8 | 0.13 | 0.81 | 0.13 | 92 | 1010.1 |
| 20260506033005 | 13 | 104 | 1.6 | 4.8 | 0.05 | 0.74 | 0.05 | 92 | 1010.1 |
| 20260506032504 | 13 | 105 | 1.6 | 4.8 | 0.03 | 0.71 | 0.03 | 92 | 1010.1 |
| 20260506032004 | 13 | 106 | 3.2 | 4.8 | 0.03 | 0.71 | 0.03 | 92 | 1010.1 |
| 20260506031504 | 13 | 103 | 3.2 | 9.7 | 0.00 | 0.69 | 0.00 | 92 | 1010.2 |
| 20260506031004 | 13 | 90 | 1.6 | 9.7 | 0.00 | 0.69 | 0.00 | 92 | 1010.1 |
| 20260506030504 | 13 | 86 | 3.2 | 4.8 | 0.00 | 0.69 | 0.00 | 92 | 1010.2 |
| 20260506025503 | 13 | 101 | 0.0 | 1.6 | 0.00 | 0.69 | 0.00 | 92 | 1010.3 |
| 20260506024003 | 13 | 107 | 3.2 | 4.8 | 0.00 | 0.69 | 0.00 | 92 | 1010.4 |
| 20260506023503 | 13 | 106 | 3.2 | 4.8 | 0.00 | 0.69 | 0.00 | 92 | 1010.5 |
| 20260506023003 | 13 | 109 | 1.6 | 4.8 | 0.00 | 0.69 | 0.00 | 92 | 1010.7 |
| 20260506021503 | 13 | 107 | 1.6 | 8.0 | 0.00 | 0.69 | 0.00 | 92 | 1010.8 |
| 20260506021003 | 13 | 113 | 3.2 | 4.8 | 0.00 | 0.69 | 0.00 | 92 | 1010.8 |
| 20260506020003 | 13 | 113 | 3.2 | 8.0 | 0.00 | 0.69 | 0.00 | 91 | 1010.8 |
| 20260506015503 | 13 | 111 | 3.2 | 11.3 | 0.00 | 0.69 | 0.00 | 91 | 1010.9 |
| 20260506013003 | 13 | 101 | 3.2 | 8.0 | 0.00 | 0.69 | 0.00 | 91 | 1010.9 |
| 20260506012503 | 13 | 98 | 4.8 | 8.0 | 0.00 | 0.69 | 0.00 | 91 | 1010.9 |
| 20260506012004 | 13 | 105 | 3.2 | 4.8 | 0.00 | 0.69 | 0.00 | 91 | 1011.0 |
| 20260506011003 | 13 | 87 | 3.2 | 4.8 | 0.00 | 0.69 | 0.00 | 91 | 1011.1 |
| 20260506010503 | 13 | 97 | 3.2 | 8.0 | 0.00 | 0.69 | 0.00 | 91 | 1011.0 |
| 20260506010003 | 13 | 73 | 1.6 | 8.0 | 0.00 | 0.69 | 0.00 | 91 | 1011.0 |
| 20260506003504 | 13 | 89 | 1.6 | 4.8 | 0.00 | 0.69 | 0.00 | 91 | 1011.2 |
| 20260506003004 | 13 | 99 | 3.2 | 4.8 | 0.00 | 0.69 | 0.00 | 91 | 1011.3 |
| 20260506002503 | 13 | 108 | 1.6 | 4.8 | 0.00 | 0.69 | 0.00 | 91 | 1011.5 |
| 20260506002003 | 14 | 104 | 1.6 | 4.8 | 0.00 | 0.69 | 0.00 | 91 | 1011.4 |
| 20260506001004 | 14 | 119 | 1.6 | 3.2 | 0.00 | 0.69 | 0.00 | 91 | 1011.6 |
| 20260506000503 | 14 | 120 | 0.0 | 3.2 | 0.00 | 0.69 | 0.00 | 91 | 1011.7 |
| 20260506000004 | 14 | 123 | 1.6 | 3.2 | 0.00 | 0.69 | 0.00 | 91 | 1011.8 |
| 20260505235504 | 14 | 141 | 1.6 | 4.8 | 0.00 | 0.69 | 0.00 | 91 | 1011.9 |
| 20260505235004 | 14 | 126 | 1.6 | 3.2 | 0.00 | 0.69 | 0.00 | 91 | 1012.0 |
| 20260505233504 | 14 | 112 | 1.6 | 3.2 | 0.00 | 0.69 | 0.00 | 91 | 1012.1 |
| 20260505233004 | 14 | 110 | 1.6 | 3.2 | 0.00 | 0.69 | 0.00 | 91 | 1012.1 |
| 20260505232003 | 14 | 91 | 1.6 | 3.2 | 0.00 | 0.69 | 0.00 | 91 | 1012.1 |
| 20260505231504 | 14 | 88 | 0.0 | 1.6 | 0.00 | 0.69 | 0.00 | 91 | 1012.1 |
| 20260505231003 | 14 | 87 | 0.0 | 1.6 | 0.00 | 0.69 | 0.00 | 91 | 1012.0 |
| 20260505230503 | 14 | 85 | 0.0 | 0.0 | 0.00 | 0.69 | 0.00 | 91 | 1012.0 |
| 20260505224503 | 14 | 85 | 0.0 | 0.0 | 0.00 | 0.69 | 0.00 | 91 | 1012.1 |
| 20260505222003 | 14 | 85 | 0.0 | 0.0 | 0.00 | 0.69 | 0.00 | 90 | 1012.3 |
| 20260505221004 | 14 | 85 | 0.0 | 0.0 | 0.00 | 0.69 | 0.00 | 90 | 1012.4 |
| 20260505214503 | 14 | 85 | 0.0 | 0.0 | 0.00 | 0.69 | 0.69 | 90 | 1012.4 |
| 20260505214003 | 14 | 85 | 0.0 | 0.0 | 0.00 | 0.69 | 0.69 | 90 | 1012.4 |
| 20260505213503 | 14 | 85 | 0.0 | 1.6 | 0.00 | 0.69 | 0.69 | 90 | 1012.5 |
| 20260505213003 | 14 | 86 | 0.0 | 3.2 | 0.03 | 0.69 | 0.69 | 90 | 1012.5 |
| 20260505211504 | 14 | 74 | 0.0 | 1.6 | 0.08 | 0.69 | 0.69 | 90 | 1012.7 |
| 20260505210504 | 14 | 74 | 0.0 | 0.0 | 0.13 | 0.69 | 0.69 | 90 | 1012.7 |
| 20260505205503 | 14 | 74 | 0.0 | 0.0 | 0.15 | 0.69 | 0.69 | 90 | 1012.8 |
| 20260505204503 | 14 | 78 | 1.6 | 3.2 | 0.30 | 0.69 | 0.69 | 90 | 1012.7 |
| 20260505203504 | 14 | 80 | 1.6 | 3.2 | 0.30 | 0.69 | 0.69 | 90 | 1012.8 |
| 20260505202503 | 15 | 82 | 0.0 | 3.2 | 0.28 | 0.66 | 0.66 | 89 | 1012.8 |
| 20260505202003 | 15 | 82 | 0.0 | 3.2 | 0.25 | 0.64 | 0.64 | 89 | 1012.8 |
| 20260505200004 | 15 | 82 | 0.0 | 1.6 | 0.18 | 0.56 | 0.56 | 87 | 1012.7 |
| 20260505193504 | 15 | 85 | 3.2 | 8.0 | 0.00 | 0.38 | 0.38 | 86 | 1012.5 |
| 20260505190004 | 15 | 82 | 1.6 | 4.8 | 0.00 | 0.38 | 0.38 | 86 | 1012.5 |
| 20260505185004 | 15 | 83 | 1.6 | 3.2 | 0.00 | 0.38 | 0.38 | 86 | 1012.5 |
| 20260505184004 | 15 | 85 | 1.6 | 4.8 | 0.00 | 0.38 | 0.38 | 86 | 1012.4 |
| 20260505183503 | 15 | 95 | 1.6 | 4.8 | 0.00 | 0.38 | 0.38 | 86 | 1012.4 |
| 20260505182504 | 15 | 103 | 3.2 | 4.8 | 0.00 | 0.38 | 0.38 | 85 | 1012.3 |
| 20260505182004 | 15 | 82 | 1.6 | 4.8 | 0.00 | 0.38 | 0.38 | 86 | 1012.3 |
| 20260505181004 | 15 | 94 | 1.6 | 4.8 | 0.00 | 0.38 | 0.38 | 85 | 1012.4 |
| 20260505180504 | 15 | 98 | 3.2 | 8.0 | 0.00 | 0.38 | 0.38 | 85 | 1012.3 |
| 20260505180004 | 15 | 78 | 1.6 | 8.0 | 0.00 | 0.38 | 0.38 | 85 | 1012.3 |
| 20260505174504 | 15 | 69 | 3.2 | 4.8 | 0.00 | 0.38 | 0.38 | 85 | 1012.3 |
| 20260505174004 | 15 | 70 | 3.2 | 4.8 | 0.00 | 0.38 | 0.38 | 85 | 1012.3 |
| 20260505173004 | 15 | 71 | 3.2 | 4.8 | 0.00 | 0.38 | 0.38 | 85 | 1012.3 |
| 20260505171504 | 15 | 36 | 1.6 | 9.7 | 0.00 | 0.38 | 0.38 | 85 | 1012.3 |
| 20260505171003 | 15 | 85 | 3.2 | 11.3 | 0.00 | 0.38 | 0.38 | 85 | 1012.3 |
| 20260505165504 | 15 | 88 | 3.2 | 8.0 | 0.00 | 0.38 | 0.38 | 85 | 1012.3 |
| 20260505164504 | 15 | 84 | 1.6 | 3.2 | 0.00 | 0.38 | 0.38 | 86 | 1012.4 |
| 20260505163504 | 15 | 74 | 3.2 | 8.0 | 0.00 | 0.38 | 0.38 | 86 | 1012.5 |
| 20260505161503 | 16 | 73 | 4.8 | 11.3 | 0.00 | 0.38 | 0.38 | 85 | 1012.5 |
| 20260505160504 | 16 | 95 | 3.2 | 9.7 | 0.00 | 0.38 | 0.38 | 84 | 1012.6 |
| 20260505153003 | 15 | 73 | 4.8 | 9.7 | 0.00 | 0.38 | 0.38 | 85 | 1012.7 |
| 20260505152504 | 15 | 76 | 3.2 | 4.8 | 0.00 | 0.38 | 0.38 | 86 | 1012.7 |
| 20260505152003 | 15 | 84 | 6.4 | 11.3 | 0.00 | 0.38 | 0.38 | 85 | 1012.7 |
| 20260505151503 | 15 | 91 | 1.6 | 9.7 | 0.00 | 0.38 | 0.38 | 86 | 1012.8 |
| 20260505150504 | 15 | 94 | 4.8 | 9.7 | 0.00 | 0.38 | 0.38 | 86 | 1012.8 |
| 20260505140504 | 15 | 68 | 3.2 | 9.7 | 0.00 | 0.38 | 0.38 | 88 | 1012.8 |
| 20260505124504 | 15 | 86 | 4.8 | 11.3 | 0.00 | 0.36 | 0.36 | 84 | 1013.0 |
| 20260505124004 | 15 | 94 | 4.8 | 11.3 | 0.00 | 0.36 | 0.36 | 84 | 1013.0 |
| 20260505122504 | 16 | 104 | 4.8 | 11.3 | 0.00 | 0.36 | 0.36 | 82 | 1013.0 |
| 20260505122004 | 16 | 115 | 4.8 | 12.9 | 0.00 | 0.36 | 0.36 | 82 | 1013.1 |
| 20260505121004 | 16 | 83 | 4.8 | 11.3 | 0.00 | 0.36 | 0.36 | 82 | 1013.1 |
| 20260505115503 | 15 | 71 | 1.6 | 4.8 | 0.00 | 0.36 | 0.36 | 86 | 1013.1 |
| 20260505115003 | 15 | 75 | 3.2 | 11.3 | 0.00 | 0.36 | 0.36 | 86 | 1013.2 |
| 20260505114503 | 15 | 72 | 1.6 | 4.8 | 0.00 | 0.36 | 0.36 | 86 | 1013.2 |
| 20260505113004 | 15 | 113 | 1.6 | 4.8 | 0.00 | 0.36 | 0.36 | 85 | 1013.2 |
| 20260505112504 | 15 | 82 | 3.2 | 8.0 | 0.00 | 0.36 | 0.36 | 85 | 1013.2 |
| 20260505112004 | 15 | 126 | 1.6 | 4.8 | 0.00 | 0.36 | 0.36 | 85 | 1013.2 |
| 20260505111504 | 15 | 126 | 0.0 | 3.2 | 0.00 | 0.36 | 0.36 | 85 | 1013.2 |
| 20260505111004 | 15 | 122 | 0.0 | 4.8 | 0.00 | 0.36 | 0.36 | 85 | 1013.3 |
| 20260505110503 | 15 | 117 | 3.2 | 4.8 | 0.00 | 0.36 | 0.36 | 85 | 1013.3 |
| 20260505101504 | 15 | 139 | 4.8 | 11.3 | 0.00 | 0.36 | 0.36 | 86 | 1013.4 |
| 20260505100503 | 15 | 142 | 3.2 | 4.8 | 0.00 | 0.36 | 0.36 | 87 | 1013.4 |
| 20260505100004 | 15 | 116 | 1.6 | 11.3 | 0.00 | 0.36 | 0.36 | 87 | 1013.4 |
| 20260505095504 | 15 | 89 | 3.2 | 11.3 | 0.00 | 0.36 | 0.36 | 88 | 1013.4 |
| 20260505094003 | 14 | 71 | 1.6 | 4.8 | 0.00 | 0.36 | 0.36 | 89 | 1013.3 |
| 20260505091504 | 13 | 228 | 0.0 | 3.2 | 0.10 | 0.36 | 0.36 | 91 | 1013.3 |
| 20260505091004 | 13 | 230 | 0.0 | 0.0 | 0.10 | 0.36 | 0.36 | 91 | 1013.3 |
| 20260505084504 | 13 | 230 | 0.0 | 1.6 | 0.18 | 0.36 | 0.36 | 90 | 1013.2 |
| 20260505084004 | 13 | 230 | 0.0 | 1.6 | 0.20 | 0.36 | 0.36 | 91 | 1013.1 |
| 20260505083504 | 13 | 230 | 0.0 | 1.6 | 0.23 | 0.36 | 0.36 | 90 | 1013.0 |
| 20260505080504 | 13 | 227 | 0.0 | 1.6 | 0.18 | 0.25 | 0.25 | 90 | 1012.8 |
| 20260505074504 | 13 | 228 | 0.0 | 3.2 | 0.15 | 0.18 | 0.18 | 90 | 1012.9 |
| 20260505073504 | 13 | 232 | 1.6 | 3.2 | 0.10 | 0.13 | 0.13 | 90 | 1013.0 |
| 20260505072003 | 13 | 232 | 1.6 | 4.8 | 0.08 | 0.10 | 0.10 | 90 | 1013.4 |
| 20260505071503 | 13 | 231 | 3.2 | 4.8 | 0.05 | 0.08 | 0.08 | 90 | 1013.5 |